Michigan City, IN

6:54 AM CDT on March 27, 2017 (GMT -0500)
Michigan City Municipal

Weather History for KMGC - December, 2013

Change the Weather History Date:

Wednesday, December 18, 2013

  Actual Average (KSBN) Record (KSBN)
Temperature  
Mean Temperature 26 °F -  
Max Temperature 37 °F 33 °F 55 °F (1957)
Min Temperature 14 °F 21 °F -7 °F (1963)
Degree Days  
Heating Degree Days 40    
Moisture  
Dew Point 15 °F    
Average Humidity 63    
Maximum Humidity 86    
Minimum Humidity 47    
Precipitation  
Precipitation 0.00 in - - ()
Sea Level Pressure  
Sea Level Pressure 30.03 in    
Wind  
Wind Speed 9 mph (SSW)    
Max Wind Speed 17 mph    
Max Gust Speed 26 mph    
Visibility 10 miles    
Events      
Averages and records for this station are not official NWS values.
T = Trace of Precipitation, MM = Missing Value Source: NWS Daily Summary

Daily Weather History Graph

Daily Weather History Graph

Search for Another Location

Airport or City:

Trip Planner

Search our weather history database for the weather conditions in past years. The results will help you decide how hot, cold, wet, or windy it might be!

Date:

Astronomy

Dec. 18, 2013 Rise Set
Actual Time 7:09 AM CST 4:18 PM CST
Civil Twilight 6:37 AM CST 4:50 PM CST
Nautical Twilight 6:02 AM CST 5:25 PM CST
Astronomical Twilight 5:28 AM CST 5:59 PM CST
Moon 5:51 PM CST (12/18) 7:47 AM CST (12/18)
Length of Visible Light 10h 12m
Length of Day
9h 09m
Full, 98% of the Moon is Illuminated
Dec 18
Full
Dec 25
Last Quarter
Jan 1
New
Jan 7
First Quarter
Jan 15
Full

Hourly Weather History & Observations

Time (CST) Temp. Windchill Dew Point Humidity Pressure Visibility Wind Dir Wind Speed Gust Speed Precip Events Conditions
12:15 AM 28.4 °F 19.7 °F 17.6 °F 64% 30.06 in 10.0 mi West 9.2 mph - N/A   Mostly Cloudy
12:35 AM 26.6 °F 17.5 °F 17.6 °F 69% 30.06 in 10.0 mi West 9.2 mph - N/A   Scattered Clouds
12:55 AM 26.6 °F 18.2 °F 17.6 °F 69% 30.06 in 10.0 mi West 8.1 mph 17.3 mph N/A   Mostly Cloudy
1:15 AM 26.6 °F 19.1 °F 17.6 °F 69% 30.06 in 10.0 mi WSW 6.9 mph - N/A   Overcast
1:35 AM 26.6 °F 17.5 °F 17.6 °F 69% 30.07 in 10.0 mi West 9.2 mph - N/A   Overcast
1:55 AM 26.6 °F 16.8 °F 17.6 °F 69% 30.08 in 10.0 mi West 10.4 mph 16.1 mph N/A   Mostly Cloudy
2:15 AM 26.6 °F 16.8 °F 15.8 °F 64% 30.09 in 10.0 mi WSW 10.4 mph 17.3 mph N/A   Overcast
2:35 AM 24.8 °F 14.6 °F 15.8 °F 69% 30.09 in 10.0 mi WSW 10.4 mph 16.1 mph N/A   Mostly Cloudy
2:55 AM 24.8 °F 16.9 °F 15.8 °F 69% 30.10 in 10.0 mi West 6.9 mph - N/A   Overcast
3:15 AM 23.0 °F 13.9 °F 15.8 °F 74% 30.10 in 10.0 mi WSW 8.1 mph - N/A   Overcast
3:35 AM 23.0 °F 13.9 °F 15.8 °F 74% 30.10 in 10.0 mi WSW 8.1 mph - N/A   Overcast
3:55 AM 23.0 °F 14.7 °F 15.8 °F 74% 30.10 in 10.0 mi SW 6.9 mph - N/A   Overcast
4:15 AM 19.4 °F 11.5 °F 14.0 °F 80% 30.10 in 10.0 mi SW 5.8 mph - N/A   Mostly Cloudy
4:35 AM 19.4 °F 9.5 °F 14.0 °F 80% 30.10 in 10.0 mi SSW 8.1 mph - N/A   Mostly Cloudy
4:55 AM 21.2 °F 12.6 °F 14.0 °F 74% 30.12 in 10.0 mi SSW 6.9 mph - N/A   Overcast
5:15 AM 19.4 °F 10.4 °F 14.0 °F 80% 30.12 in 10.0 mi SSW 6.9 mph - N/A   Overcast
5:35 AM 19.4 °F 10.4 °F 12.2 °F 74% 30.13 in 10.0 mi SW 6.9 mph - N/A   Overcast
5:55 AM 17.6 °F 7.3 °F 12.2 °F 79% 30.14 in 10.0 mi SW 8.1 mph - N/A   Overcast
6:15 AM 17.6 °F 8.2 °F 10.4 °F 73% 30.14 in 10.0 mi SSW 6.9 mph - N/A   Mostly Cloudy
6:35 AM 14.0 °F 3.9 °F 10.4 °F 86% 30.14 in 10.0 mi SSW 6.9 mph - N/A   Scattered Clouds
6:55 AM 15.8 °F 8.6 °F 10.4 °F 79% 30.13 in 10.0 mi SSW 4.6 mph - N/A   Clear
7:15 AM 14.0 °F 2.9 °F 8.6 °F 79% 30.14 in 10.0 mi SSW 8.1 mph - N/A   Clear
7:35 AM 15.8 °F 5.1 °F 10.4 °F 79% 30.14 in 10.0 mi SSW 8.1 mph - N/A   Scattered Clouds
7:55 AM 15.8 °F 6.1 °F 10.4 °F 79% 30.14 in 10.0 mi SW 6.9 mph - N/A   Scattered Clouds
8:15 AM 17.6 °F 7.3 °F 10.4 °F 73% 30.16 in 10.0 mi SW 8.1 mph - N/A   Clear
8:35 AM 19.4 °F 9.5 °F 10.4 °F 68% 30.16 in 10.0 mi SSW 8.1 mph - N/A   Scattered Clouds
8:55 AM 19.4 °F 12.8 °F 12.2 °F 74% 30.17 in 10.0 mi SW 4.6 mph - N/A   Mostly Cloudy
9:15 AM 19.4 °F 11.5 °F 12.2 °F 74% 30.18 in 10.0 mi SW 5.8 mph - N/A   Scattered Clouds
9:35 AM 21.2 °F 13.6 °F 12.2 °F 68% 30.17 in 10.0 mi SSW 5.8 mph - N/A   Clear
9:55 AM 21.2 °F 13.6 °F 12.2 °F 68% 30.17 in 10.0 mi SSW 5.8 mph - N/A   Clear
10:15 AM 23.0 °F 14.7 °F 12.2 °F 63% 30.18 in 10.0 mi SSW 6.9 mph - N/A   Scattered Clouds
10:35 AM 23.0 °F 13.9 °F 12.2 °F 63% 30.18 in 10.0 mi SSW 8.1 mph - N/A   Scattered Clouds
10:55 AM 24.8 °F 16.9 °F 12.2 °F 59% 30.17 in 10.0 mi SSW 6.9 mph - N/A   Clear
11:15 AM 26.6 °F 20.0 °F 12.2 °F 55% 30.15 in 10.0 mi SSW 5.8 mph - N/A   Clear
11:35 AM 28.4 °F 22.2 °F 12.2 °F 51% 30.14 in 10.0 mi South 5.8 mph - N/A   Clear
11:55 AM 28.4 °F 21.2 °F 12.2 °F 51% 30.12 in 10.0 mi South 6.9 mph - N/A   Clear
12:15 PM 28.4 °F 20.4 °F 12.2 °F 51% 30.11 in 10.0 mi SSW 8.1 mph - N/A   Clear
12:35 PM 28.4 °F 20.4 °F 12.2 °F 51% 30.09 in 10.0 mi South 8.1 mph - N/A   Clear
12:55 PM 28.4 °F 20.4 °F 12.2 °F 51% 30.08 in 10.0 mi South 8.1 mph - N/A   Clear
1:15 PM 28.4 °F 19.1 °F 14.0 °F 55% 30.06 in 10.0 mi South 10.4 mph 17.3 mph N/A   Clear
1:35 PM 28.4 °F 19.1 °F 14.0 °F 55% 30.05 in 10.0 mi South 10.4 mph - N/A   Clear
1:55 PM 28.4 °F 18.5 °F 14.0 °F 55% 30.03 in 10.0 mi South 11.5 mph - N/A   Clear
2:15 PM 28.4 °F 18.0 °F 12.2 °F 51% 30.02 in 10.0 mi South 12.7 mph 19.6 mph N/A   Clear
2:35 PM 28.4 °F 21.2 °F 12.2 °F 51% 30.01 in 10.0 mi South 6.9 mph 16.1 mph N/A   Clear
2:55 PM 28.4 °F 21.2 °F 12.2 °F 51% 29.99 in 10.0 mi South 6.9 mph - N/A   Clear
3:15 PM 28.4 °F 19.1 °F 12.2 °F 51% 29.97 in 10.0 mi South 10.4 mph 16.1 mph N/A   Clear
3:35 PM 28.4 °F 18.5 °F 12.2 °F 51% 29.96 in 10.0 mi South 11.5 mph 19.6 mph N/A   Clear
3:55 PM 28.4 °F 18.0 °F 12.2 °F 51% 29.94 in 10.0 mi South 12.7 mph 21.9 mph N/A   Clear
4:15 PM 28.4 °F 19.7 °F 12.2 °F 51% 29.93 in 10.0 mi South 9.2 mph 20.7 mph N/A   Clear
4:35 PM 28.4 °F 18.5 °F 12.2 °F 51% 29.91 in 10.0 mi South 11.5 mph 19.6 mph N/A   Clear
4:55 PM 28.4 °F 17.0 °F 12.2 °F 51% 29.91 in 10.0 mi South 15.0 mph 25.3 mph N/A   Clear
5:15 PM 28.4 °F 18.5 °F 12.2 °F 51% 29.90 in 10.0 mi South 11.5 mph 17.3 mph N/A   Clear
5:35 PM 30.2 °F 19.8 °F 12.2 °F 47% 29.89 in 10.0 mi South 13.8 mph 21.9 mph N/A   Clear
5:55 PM 30.2 °F 20.2 °F 12.2 °F 47% 29.90 in 10.0 mi South 12.7 mph 23.0 mph N/A   Clear
6:15 PM 30.2 °F 19.3 °F 12.2 °F 47% 29.91 in 10.0 mi South 15.0 mph 26.5 mph N/A   Clear
6:35 PM 30.2 °F 19.8 °F 12.2 °F 47% 29.91 in 10.0 mi SSW 13.8 mph 23.0 mph N/A   Clear
6:55 PM 30.2 °F 19.3 °F 14.0 °F 51% 29.90 in 10.0 mi SSW 15.0 mph 21.9 mph N/A   Clear
7:15 PM 32.0 °F 21.6 °F 14.0 °F 48% 29.91 in 10.0 mi South 15.0 mph 21.9 mph N/A   Clear
7:35 PM 32.0 °F 22.5 °F 14.0 °F 48% 29.90 in 10.0 mi SSW 12.7 mph 19.6 mph N/A   Clear
7:55 PM 32.0 °F 21.6 °F 15.8 °F 51% 29.89 in 10.0 mi South 15.0 mph 24.2 mph N/A   Clear
8:15 PM 32.0 °F 20.8 °F 17.6 °F 55% 29.89 in 10.0 mi SSW 17.3 mph 23.0 mph N/A   Clear
8:35 PM 32.0 °F 22.1 °F 17.6 °F 55% 29.89 in 10.0 mi WSW 13.8 mph 21.9 mph N/A   Clear
8:55 PM 32.0 °F 22.1 °F 17.6 °F 55% 29.88 in 10.0 mi South 13.8 mph 18.4 mph N/A   Clear
9:15 PM 32.0 °F 21.6 °F 19.4 °F 60% 29.87 in 10.0 mi SSW 15.0 mph 21.9 mph N/A   Clear
9:35 PM 32.0 °F 21.2 °F 21.2 °F 64% 29.87 in 10.0 mi SSW 16.1 mph 21.9 mph N/A   Clear
9:55 PM 33.8 °F 23.9 °F 21.2 °F 60% 29.87 in 10.0 mi SSW 15.0 mph 23.0 mph N/A   Clear
10:15 PM 33.8 °F 23.9 °F 23.0 °F 65% 29.87 in 10.0 mi SSW 15.0 mph 20.7 mph N/A   Clear
10:35 PM 35.6 °F 26.2 °F 24.8 °F 65% 29.87 in 10.0 mi SSW 15.0 mph 20.7 mph N/A   Clear
10:55 PM 35.6 °F 26.2 °F 26.6 °F 70% 29.86 in 10.0 mi SSW 15.0 mph 23.0 mph N/A   Clear
11:15 PM 37.4 °F 27.8 °F 26.6 °F 65% 29.86 in 10.0 mi SSW 17.3 mph 25.3 mph N/A   Clear
11:35 PM 37.4 °F 27.8 °F 26.6 °F 65% 29.86 in 10.0 mi SSW 17.3 mph 23.0 mph N/A   Clear
11:55 PM 37.4 °F 28.2 °F 28.4 °F 70% 29.85 in 10.0 mi SW 16.1 mph 21.9 mph N/A   Clear